Main page
Satellite images Climate Cyclones Lightning AirportsFAQ Languages Contact Newsletter About
Weather : Europe Africa North America South America Asia Australia-Oceania Others

5595, Ho Chi Minh City, Tan Son Nhat International Airport

latitude: , longitude: Vietnam, elevation: 10-49N m


METAR: VVTS 221030Z 14007KT 100V180 9999 FEW017 SCT050 30/25 Q1005 NOSIG